{"data":{"norad_id":69388,"epoch":"2026-09-20T04:27:34.899840Z","epoch_age_seconds":61596,"freshness":"FRESH","line1":"1 69388U 26124G   26263.18582060  .00000096  00000+0  13067-3 0  9992","line2":"2 69388  89.0090 352.0356 0002123 103.6041 256.5347 13.51029206 14881","mean_motion":13.51029206,"eccentricity":0.0002123,"inclination_deg":89.009,"raan_deg":352.0356,"arg_perigee_deg":103.6041,"mean_anomaly_deg":256.5347,"bstar":0.00013067,"rev_number":1488,"period_min":106.5854086355,"perigee_km":1066.8933491975,"apogee_km":1070.0551803405,"semimajor_km":7446.611264769,"source":"CELESTRAK","updated_at":"2026-09-20T09:00:24.859853Z"}}